Location: Unspecified
(0.0000°N, 0.0000°E)
Time: 05:25:35
(UTC+00:00)

Vanguard 3 - Pass Details

Date: 21 April 2021
Orbit: 507 x 3262 km, 33.4° (Epoch: 17 May)

Event Time Altitude Azimuth Distance (km) Brightness Sun altitude
Rises 18:20:26 0° 224° (SW) 7,232 12.5 -5.3°
Reaches altitude 10° 18:26:06 10° 217° (SW) 6,160 12.0 -6.7°
Maximum altitude 18:43:13 40° 154° (SSE) 3,496 10.0 -10.9°
Enters shadow 18:53:23 15° 94° (E) 4,045 10.0 -13.4°
